Time,TemperatureF,DewpointF,PressureIn,WindDirection,WindDirectionDegrees,WindSpeedMPH,WindSpeedGustMPH,Humidity,HourlyPrecipIn,Conditions,Clouds,dailyrainin,SoftwareType,DateUTC
2013-01-15 00:03:00,28.9,20.4,29.58,SSW,203,0.0,4.4,70,0.00,,,0.00,WUHU216HW,2013-01-15 09:03:00,
2013-01-15 00:08:00,28.9,20.0,29.58,West,270,5.5,5.5,69,0.00,,,0.00,WUHU216HW,2013-01-15 09:08:00,
2013-01-15 00:13:00,28.9,19.7,29.59,SSW,203,1.1,5.5,68,0.00,,,0.00,WUHU216HW,2013-01-15 09:13:00,
2013-01-15 00:18:00,28.9,19.7,29.59,SW,225,0.0,5.5,68,0.00,,,0.00,WUHU216HW,2013-01-15 09:18:00,
2013-01-15 00:23:00,28.7,19.5,29.59,WSW,248,0.0,0.0,68,0.00,,,0.00,WUHU216HW,2013-01-15 09:23:00,
2013-01-15 00:28:00,28.5,19.7,29.59,WSW,248,0.0,0.0,69,0.00,,,0.00,WUHU216HW,2013-01-15 09:28:00,
2013-01-15 00:33:00,28.2,19.7,29.60,SSW,203,0.0,0.0,70,0.00,,,0.00,WUHU216HW,2013-01-15 09:33:00,
2013-01-15 00:38:00,28.0,19.5,29.60,SW,225,0.0,0.0,70,0.00,,,0.00,WUHU216HW,2013-01-15 09:38:00,
2013-01-15 00:43:00,28.0,19.8,29.60,SSE,158,10.0,10.0,71,0.00,,,0.00,WUHU216HW,2013-01-15 09:43:00,
2013-01-15 00:48:00,28.0,20.1,29.60,South,180,0.0,10.0,72,0.00,,,0.00,WUHU216HW,2013-01-15 09:48:00,
2013-01-15 00:53:00,28.2,20.6,29.60,South,180,6.0,6.0,73,0.00,,,0.00,WUHU216HW,2013-01-15 09:53:00,
2013-01-15 00:58:00,28.2,20.6,29.61,South,180,0.0,6.0,73,0.00,,,0.00,WUHU216HW,2013-01-15 09:58:00,
2013-01-15 01:03:00,28.2,20.6,29.61,South,180,0.0,6.0,73,0.00,,,0.00,WUHU216HW,2013-01-15 10:03:00,
2013-01-15 01:08:00,28.0,20.4,29.62,South,180,2.9,6.7,73,0.00,,,0.00,WUHU216HW,2013-01-15 10:08:00,
2013-01-15 01:13:00,28.0,20.4,29.62,SW,225,0.0,6.7,73,0.00,,,0.00,WUHU216HW,2013-01-15 10:13:00,
2013-01-15 01:18:00,28.2,20.6,29.62,SSW,203,0.0,2.9,73,0.00,,,0.00,WUHU216HW,2013-01-15 10:18:00,
2013-01-15 01:23:00,28.2,20.0,29.62,SSW,203,2.2,6.0,71,0.00,,,0.00,WUHU216HW,2013-01-15 10:23:00,
2013-01-15 01:28:00,28.2,19.7,29.62,SW,225,0.0,6.0,70,0.00,,,0.00,WUHU216HW,2013-01-15 10:28:00,
2013-01-15 01:33:00,28.2,19.4,29.62,SW,225,3.3,3.3,69,0.00,,,0.00,WUHU216HW,2013-01-15 10:33:00,
2013-01-15 01:38:00,28.0,18.8,29.63,SE,135,7.8,7.8,68,0.00,,,0.00,WUHU216HW,2013-01-15 10:38:00,
2013-01-15 01:43:00,28.0,18.8,29.63,South,180,10.9,12.5,68,0.00,,,0.00,WUHU216HW,2013-01-15 10:43:00,
2013-01-15 01:48:00,28.0,18.5,29.63,South,180,0.8,12.5,67,0.00,,,0.00,WUHU216HW,2013-01-15 10:48:00,
2013-01-15 01:53:00,28.0,18.5,29.62,SSE,158,2.6,8.2,67,0.00,,,0.00,WUHU216HW,2013-01-15 10:53:00,
2013-01-15 01:58:00,28.0,18.5,29.62,West,270,0.0,8.2,67,0.00,,,0.00,WUHU216HW,2013-01-15 10:58:00,
2013-01-15 02:03:00,28.0,18.5,29.62,South,180,8.0,8.2,67,0.00,,,0.00,WUHU216HW,2013-01-15 11:03:00,
2013-01-15 02:08:00,28.0,18.5,29.63,South,180,0.0,8.0,67,0.00,,,0.00,WUHU216HW,2013-01-15 11:08:00,
2013-01-15 02:13:00,28.0,18.5,29.63,South,180,8.5,8.5,67,0.00,,,0.00,WUHU216HW,2013-01-15 11:13:00,
2013-01-15 02:18:00,28.0,18.1,29.63,South,180,2.9,8.5,66,0.00,,,0.00,WUHU216HW,2013-01-15 11:18:00,
2013-01-15 02:23:00,27.6,17.7,29.64,SSW,203,0.0,6.9,66,0.00,,,0.00,WUHU216HW,2013-01-15 11:23:00,
2013-01-15 02:28:00,27.6,17.7,29.64,SSE,158,0.0,0.0,66,0.00,,,0.00,WUHU216HW,2013-01-15 11:28:00,
2013-01-15 02:33:00,27.5,17.6,29.64,South,180,1.7,1.7,66,0.00,,,0.00,WUHU216HW,2013-01-15 11:33:00,
2013-01-15 02:38:00,27.3,17.4,29.64,SSE,158,0.0,1.7,66,0.00,,,0.00,WUHU216HW,2013-01-15 11:38:00,
2013-01-15 02:43:00,27.1,17.6,29.64,SW,225,0.0,0.0,67,0.00,,,0.00,WUHU216HW,2013-01-15 11:43:00,
2013-01-15 02:48:00,27.1,17.6,29.64,South,180,0.0,0.0,67,0.00,,,0.00,WUHU216HW,2013-01-15 11:48:00,
2013-01-15 02:53:00,26.9,17.4,29.64,SSE,158,3.8,3.8,67,0.00,,,0.00,WUHU216HW,2013-01-15 11:53:00,
2013-01-15 02:58:00,26.7,17.2,29.64,South,180,1.1,3.8,67,0.00,,,0.00,WUHU216HW,2013-01-15 11:58:00,
2013-01-15 03:03:00,26.7,17.2,29.64,South,180,0.0,3.8,67,0.00,,,0.00,WUHU216HW,2013-01-15 12:03:00,
2013-01-15 03:08:00,26.7,17.2,29.64,South,180,0.0,6.2,67,0.00,,,0.00,WUHU216HW,2013-01-15 12:08:00,
2013-01-15 03:13:00,26.6,17.0,29.64,SSE,158,0.0,6.2,67,0.00,,,0.00,WUHU216HW,2013-01-15 12:13:00,
2013-01-15 03:18:00,26.4,16.8,29.64,SSE,158,6.7,6.7,67,0.00,,,0.00,WUHU216HW,2013-01-15 12:18:00,
2013-01-15 03:23:00,26.4,16.8,29.64,SSW,203,4.2,6.7,67,0.00,,,0.00,WUHU216HW,2013-01-15 12:23:00,
2013-01-15 03:28:00,26.4,16.8,29.64,SE,135,0.0,4.2,67,0.00,,,0.00,WUHU216HW,2013-01-15 12:28:00,
2013-01-15 03:33:00,26.4,16.8,29.64,South,180,0.0,4.2,67,0.00,,,0.00,WUHU216HW,2013-01-15 12:33:00,
2013-01-15 03:38:00,26.2,17.0,29.64,South,180,0.8,1.3,68,0.00,,,0.00,WUHU216HW,2013-01-15 12:38:00,
2013-01-15 03:43:00,25.8,16.7,29.65,South,180,0.0,0.8,68,0.00,,,0.00,WUHU216HW,2013-01-15 12:43:00,
2013-01-15 03:48:00,25.5,16.3,29.65,South,180,0.0,0.8,68,0.00,,,0.00,WUHU216HW,2013-01-15 12:48:00,
2013-01-15 03:53:00,25.5,16.7,29.65,SSW,203,0.0,3.5,69,0.00,,,0.00,WUHU216HW,2013-01-15 12:53:00,
2013-01-15 03:58:00,25.3,16.8,29.65,SSW,203,0.0,3.5,70,0.00,,,0.00,WUHU216HW,2013-01-15 12:58:00,
2013-01-15 04:03:00,25.3,16.8,29.65,SSW,203,0.0,0.0,70,0.00,,,0.00,WUHU216HW,2013-01-15 13:03:00,
2013-01-15 04:08:00,24.9,16.8,29.65,SSE,158,0.0,0.0,71,0.00,,,0.00,WUHU216HW,2013-01-15 13:08:00,
2013-01-15 04:13:00,24.9,16.8,29.66,South,180,0.0,0.0,71,0.00,,,0.00,WUHU216HW,2013-01-15 13:13:00,
2013-01-15 04:18:00,24.8,16.6,29.66,South,180,0.0,0.0,71,0.00,,,0.00,WUHU216HW,2013-01-15 13:18:00,
2013-01-15 04:23:00,24.6,16.8,29.66,South,180,0.0,0.0,72,0.00,,,0.00,WUHU216HW,2013-01-15 13:23:00,
2013-01-15 04:28:00,24.6,16.8,29.66,South,180,0.0,0.0,72,0.00,,,0.00,WUHU216HW,2013-01-15 13:28:00,
2013-01-15 04:33:00,24.4,16.6,29.67,South,180,0.0,0.0,72,0.00,,,0.00,WUHU216HW,2013-01-15 13:33:00,
2013-01-15 04:38:00,24.0,16.6,29.67,South,180,0.0,0.0,73,0.00,,,0.00,WUHU216HW,2013-01-15 13:38:00,
2013-01-15 04:43:00,23.9,16.4,29.66,South,180,0.0,0.0,73,0.00,,,0.00,WUHU216HW,2013-01-15 13:43:00,
2013-01-15 04:48:00,23.7,16.3,29.67,South,180,0.0,0.0,73,0.00,,,0.00,WUHU216HW,2013-01-15 13:48:00,
2013-01-15 04:53:00,23.5,16.1,29.67,South,180,0.0,0.0,73,0.00,,,0.00,WUHU216HW,2013-01-15 13:53:00,
2013-01-15 04:58:00,23.5,16.4,29.67,South,180,0.0,0.0,74,0.00,,,0.00,WUHU216HW,2013-01-15 13:58:00,
2013-01-15 05:03:00,23.5,16.4,29.67,SSE,158,0.0,0.0,74,0.00,,,0.00,WUHU216HW,2013-01-15 14:03:00,
2013-01-15 05:08:00,23.5,16.7,29.67,South,180,0.0,0.0,75,0.00,,,0.00,WUHU216HW,2013-01-15 14:08:00,
2013-01-15 05:13:00,23.7,16.9,29.67,SSE,158,0.0,0.0,75,0.00,,,0.00,WUHU216HW,2013-01-15 14:13:00,
2013-01-15 05:18:00,23.9,17.0,29.67,SSE,158,0.0,0.0,75,0.00,,,0.00,WUHU216HW,2013-01-15 14:18:00,
2013-01-15 05:23:00,24.2,17.7,29.67,South,180,0.0,0.0,76,0.00,,,0.00,WUHU216HW,2013-01-15 14:23:00,
2013-01-15 05:28:00,24.4,17.9,29.67,South,180,0.0,0.0,76,0.00,,,0.00,WUHU216HW,2013-01-15 14:28:00,
2013-01-15 05:33:00,24.4,17.9,29.68,South,180,0.0,0.0,76,0.00,,,0.00,WUHU216HW,2013-01-15 14:33:00,
2013-01-15 05:38:00,24.6,18.1,29.68,South,180,0.0,0.0,76,0.00,,,0.00,WUHU216HW,2013-01-15 14:38:00,
2013-01-15 05:43:00,24.6,18.1,29.68,South,180,0.0,0.0,76,0.00,,,0.00,WUHU216HW,2013-01-15 14:43:00,
2013-01-15 05:48:00,24.6,18.1,29.68,SSW,203,0.0,0.0,76,0.00,,,0.00,WUHU216HW,2013-01-15 14:48:00,
2013-01-15 05:53:00,24.6,18.1,29.68,SSW,203,0.0,0.0,76,0.00,,,0.00,WUHU216HW,2013-01-15 14:53:00,
2013-01-15 05:58:00,24.6,18.1,29.68,SSW,203,0.0,0.0,76,0.00,,,0.00,WUHU216HW,2013-01-15 14:58:00,
2013-01-15 06:03:00,24.4,17.9,29.68,SSW,203,0.0,0.0,76,0.00,,,0.00,WUHU216HW,2013-01-15 15:03:00,
2013-01-15 06:08:00,24.4,17.9,29.68,SSW,203,0.0,0.0,76,0.00,,,0.00,WUHU216HW,2013-01-15 15:08:00,
2013-01-15 06:13:00,24.0,17.5,29.68,SSW,203,0.0,0.0,76,0.00,,,0.00,WUHU216HW,2013-01-15 15:13:00,
2013-01-15 06:18:00,24.0,17.9,29.68,SSW,203,0.0,0.0,77,0.00,,,0.00,WUHU216HW,2013-01-15 15:18:00,
2013-01-15 06:23:00,24.0,17.9,29.69,SSW,203,0.0,0.0,77,0.00,,,0.00,WUHU216HW,2013-01-15 15:23:00,
2013-01-15 06:28:00,23.9,17.7,29.69,SSW,203,0.0,0.0,77,0.00,,,0.00,WUHU216HW,2013-01-15 15:28:00,
2013-01-15 06:33:00,23.7,17.8,29.69,SSW,203,0.0,0.0,78,0.00,,,0.00,WUHU216HW,2013-01-15 15:33:00,
2013-01-15 06:38:00,23.5,17.6,29.69,SSW,203,0.0,0.0,78,0.00,,,0.00,WUHU216HW,2013-01-15 15:38:00,
2013-01-15 06:43:00,23.3,17.5,29.69,SSW,203,0.0,0.0,78,0.00,,,0.00,WUHU216HW,2013-01-15 15:43:00,
2013-01-15 06:48:00,23.1,17.3,29.69,SSW,203,0.0,0.0,78,0.00,,,0.00,WUHU216HW,2013-01-15 15:48:00,
2013-01-15 06:53:00,22.8,17.2,29.70,SSW,203,0.0,0.0,79,0.00,,,0.00,WUHU216HW,2013-01-15 15:53:00,
2013-01-15 06:58:00,22.8,17.2,29.70,SSW,203,0.0,0.0,79,0.00,,,0.00,WUHU216HW,2013-01-15 15:58:00,
2013-01-15 07:03:00,22.6,17.1,29.70,SSW,203,0.0,0.0,79,0.00,,,0.00,WUHU216HW,2013-01-15 16:03:00,
2013-01-15 07:08:00,22.4,17.2,29.70,SSW,203,0.0,0.0,80,0.00,,,0.00,WUHU216HW,2013-01-15 16:08:00,
2013-01-15 07:13:00,22.4,17.2,29.70,SSW,203,0.0,0.0,80,0.00,,,0.00,WUHU216HW,2013-01-15 16:13:00,
2013-01-15 07:18:00,22.2,17.0,29.70,SSW,203,0.0,0.0,80,0.00,,,0.00,WUHU216HW,2013-01-15 16:18:00,
2013-01-15 07:23:00,22.1,16.8,29.70,SSW,203,0.0,0.0,80,0.00,,,0.00,WUHU216HW,2013-01-15 16:23:00,
2013-01-15 07:28:00,22.4,17.5,29.70,South,180,0.0,0.0,81,0.00,,,0.00,WUHU216HW,2013-01-15 16:28:00,
2013-01-15 07:33:00,22.4,17.5,29.71,South,180,0.0,0.0,81,0.00,,,0.00,WUHU216HW,2013-01-15 16:33:00,
2013-01-15 07:38:00,22.4,17.5,29.71,South,180,0.0,0.0,81,0.00,,,0.00,WUHU216HW,2013-01-15 16:38:00,
2013-01-15 07:43:00,22.4,17.5,29.71,South,180,0.0,0.0,81,0.00,,,0.00,WUHU216HW,2013-01-15 16:43:00,
2013-01-15 07:48:00,22.4,17.5,29.71,South,180,0.0,0.0,81,0.00,,,0.00,WUHU216HW,2013-01-15 16:48:00,
2013-01-15 07:53:00,22.2,17.3,29.71,South,180,0.0,0.0,81,0.00,,,0.00,WUHU216HW,2013-01-15 16:53:00,
2013-01-15 07:58:00,21.7,16.7,29.71,South,180,0.0,0.0,81,0.00,,,0.00,WUHU216HW,2013-01-15 16:58:00,
2013-01-15 08:03:00,21.5,16.6,29.72,South,180,0.0,0.0,81,0.00,,,0.00,WUHU216HW,2013-01-15 17:03:00,
2013-01-15 08:08:00,21.3,16.4,29.72,South,180,0.0,0.0,81,0.00,,,0.00,WUHU216HW,2013-01-15 17:08:00,
2013-01-15 08:13:00,21.3,16.4,29.73,South,180,0.0,0.0,81,0.00,,,0.00,WUHU216HW,2013-01-15 17:13:00,
2013-01-15 08:18:00,21.3,16.7,29.73,South,180,0.0,0.0,82,0.00,,,0.00,WUHU216HW,2013-01-15 17:18:00,
2013-01-15 08:23:00,21.0,16.3,29.73,South,180,0.0,0.0,82,0.00,,,0.00,WUHU216HW,2013-01-15 17:23:00,
2013-01-15 08:28:00,21.0,16.0,29.73,NNE,23,0.0,0.0,81,0.00,,,0.00,WUHU216HW,2013-01-15 17:28:00,
2013-01-15 08:33:00,21.0,16.3,29.73,NNE,23,0.0,0.0,82,0.00,,,0.00,WUHU216HW,2013-01-15 17:33:00,
2013-01-15 08:38:00,21.0,16.3,29.73,NNE,23,0.0,0.0,82,0.00,,,0.00,WUHU216HW,2013-01-15 17:38:00,
2013-01-15 08:43:00,21.0,16.3,29.74,NNE,23,0.0,0.0,82,0.00,,,0.00,WUHU216HW,2013-01-15 17:43:00,
2013-01-15 08:48:00,20.8,16.1,29.74,NNE,23,0.0,0.0,82,0.00,,,0.00,WUHU216HW,2013-01-15 17:48:00,
2013-01-15 08:53:00,20.4,15.8,29.74,NNE,23,0.0,0.0,82,0.00,,,0.00,WUHU216HW,2013-01-15 17:53:00,
2013-01-15 08:59:00,20.1,15.8,29.74,NNE,23,0.0,0.0,83,0.00,,,0.00,WUHU216HW,2013-01-15 17:59:00,
2013-01-15 09:03:00,19.9,15.5,29.75,NNE,23,0.0,0.0,83,0.00,,,0.00,WUHU216HW,2013-01-15 18:03:00,
2013-01-15 09:08:00,19.7,15.3,29.75,NNE,23,0.0,0.0,83,0.00,,,0.00,WUHU216HW,2013-01-15 18:08:00,
2013-01-15 09:13:00,19.5,15.1,29.75,NE,45,0.0,0.0,83,0.00,,,0.00,WUHU216HW,2013-01-15 18:13:00,
2013-01-15 09:18:00,19.2,14.8,29.75,NE,45,0.0,0.0,83,0.00,,,0.00,WUHU216HW,2013-01-15 18:18:00,
2013-01-15 09:23:00,19.2,14.8,29.75,ENE,68,0.0,0.0,83,0.00,,,0.00,WUHU216HW,2013-01-15 18:23:00,
2013-01-15 09:28:00,19.0,14.6,29.75,ENE,68,0.0,0.0,83,0.00,,,0.00,WUHU216HW,2013-01-15 18:28:00,
2013-01-15 09:34:00,19.0,14.9,29.75,ENE,68,0.0,0.0,84,0.00,,,0.00,WUHU216HW,2013-01-15 18:34:00,
2013-01-15 09:39:00,18.8,14.7,29.75,ENE,68,0.0,0.0,84,0.00,,,0.00,WUHU216HW,2013-01-15 18:39:00,
2013-01-15 09:44:00,18.8,14.7,29.76,ENE,68,0.0,0.0,84,0.00,,,0.00,WUHU216HW,2013-01-15 18:44:00,
2013-01-15 09:49:00,19.0,14.9,29.76,ENE,68,0.0,0.0,84,0.00,,,0.00,WUHU216HW,2013-01-15 18:49:00,
2013-01-15 09:54:00,19.0,14.9,29.76,ENE,68,0.0,0.0,84,0.00,,,0.00,WUHU216HW,2013-01-15 18:54:00,
2013-01-15 09:59:00,19.2,15.0,29.76,ENE,68,0.0,0.0,84,0.00,,,0.00,WUHU216HW,2013-01-15 18:59:00,
2013-01-15 10:04:00,19.2,15.0,29.76,ENE,68,0.0,0.0,84,0.00,,,0.00,WUHU216HW,2013-01-15 19:04:00,
2013-01-15 10:09:00,19.2,15.0,29.76,ENE,68,0.0,0.0,84,0.00,,,0.00,WUHU216HW,2013-01-15 19:09:00,
2013-01-15 10:14:00,19.2,15.0,29.76,ENE,68,0.0,0.0,84,0.00,,,0.00,WUHU216HW,2013-01-15 19:14:00,
2013-01-15 10:19:00,19.0,14.9,29.77,ENE,68,0.0,0.0,84,0.00,,,0.00,WUHU216HW,2013-01-15 19:19:00,
2013-01-15 10:24:00,18.8,14.7,29.77,ENE,68,0.0,0.0,84,0.00,,,0.00,WUHU216HW,2013-01-15 19:24:00,
2013-01-15 10:29:00,18.8,14.7,29.77,North,0,1.7,1.7,84,0.00,,,0.00,WUHU216HW,2013-01-15 19:29:00,
2013-01-15 10:34:00,19.0,15.1,29.77,ENE,68,0.0,1.7,85,0.00,,,0.00,WUHU216HW,2013-01-15 19:34:00,
2013-01-15 10:39:00,18.8,14.9,29.77,ENE,68,0.0,0.0,85,0.00,,,0.00,WUHU216HW,2013-01-15 19:39:00,
2013-01-15 10:44:00,19.0,15.1,29.77,ENE,68,0.0,0.0,85,0.00,,,0.00,WUHU216HW,2013-01-15 19:44:00,
2013-01-15 10:49:00,19.0,15.1,29.77,ENE,68,0.0,0.0,85,0.00,,,0.00,WUHU216HW,2013-01-15 19:49:00,
2013-01-15 10:54:00,18.8,14.9,29.78,ENE,68,0.0,0.0,85,0.00,,,0.00,WUHU216HW,2013-01-15 19:54:00,
2013-01-15 10:59:00,19.0,15.1,29.78,ENE,68,0.0,0.0,85,0.00,,,0.00,WUHU216HW,2013-01-15 19:59:00,
2013-01-15 11:04:00,18.8,14.9,29.78,ENE,68,0.0,0.0,85,0.00,,,0.00,WUHU216HW,2013-01-15 20:04:00,
2013-01-15 11:09:00,19.0,15.1,29.78,ENE,68,0.0,0.0,85,0.00,,,0.00,WUHU216HW,2013-01-15 20:09:00,
2013-01-15 11:14:00,19.2,15.3,29.78,ENE,68,0.0,0.0,85,0.00,,,0.00,WUHU216HW,2013-01-15 20:14:00,
2013-01-15 11:19:00,19.5,15.7,29.79,ENE,68,0.0,0.0,85,0.00,,,0.00,WUHU216HW,2013-01-15 20:19:00,
2013-01-15 11:24:00,19.5,15.7,29.79,ENE,68,0.0,0.0,85,0.00,,,0.00,WUHU216HW,2013-01-15 20:24:00,
2013-01-15 11:29:00,19.9,16.0,29.79,ENE,68,0.0,0.0,85,0.00,,,0.00,WUHU216HW,2013-01-15 20:29:00,
2013-01-15 11:34:00,20.1,16.5,29.79,ENE,68,0.0,0.0,86,0.00,,,0.00,WUHU216HW,2013-01-15 20:34:00,
2013-01-15 11:39:00,20.4,16.8,29.79,ENE,68,0.0,0.0,86,0.00,,,0.00,WUHU216HW,2013-01-15 20:39:00,
2013-01-15 11:44:00,20.8,17.2,29.79,ENE,68,0.0,0.0,86,0.00,,,0.00,WUHU216HW,2013-01-15 20:44:00,
2013-01-15 11:49:00,21.0,17.4,29.79,ENE,68,0.0,0.0,86,0.00,,,0.00,WUHU216HW,2013-01-15 20:49:00,
2013-01-15 11:54:00,21.7,18.1,29.79,ENE,68,0.0,0.0,86,0.00,,,0.00,WUHU216HW,2013-01-15 20:54:00,
2013-01-15 11:59:00,23.5,20.2,29.79,ENE,68,0.0,0.0,87,0.00,,,0.00,WUHU216HW,2013-01-15 20:59:00,
2013-01-15 12:04:00,25.8,22.7,29.79,ENE,68,0.0,0.0,88,0.00,,,0.00,WUHU216HW,2013-01-15 21:04:00,
2013-01-15 12:09:00,27.3,24.2,29.78,ENE,68,0.0,0.0,88,0.00,,,0.00,WUHU216HW,2013-01-15 21:09:00,
2013-01-15 12:14:00,28.2,24.5,29.79,ENE,68,0.0,0.0,86,0.00,,,0.00,WUHU216HW,2013-01-15 21:14:00,
2013-01-15 12:19:00,28.4,24.1,29.79,ENE,68,0.0,0.0,84,0.00,,,0.00,WUHU216HW,2013-01-15 21:19:00,
2013-01-15 12:24:00,28.2,23.6,29.78,ENE,68,0.0,0.0,83,0.00,,,0.00,WUHU216HW,2013-01-15 21:24:00,
2013-01-15 12:29:00,27.6,22.8,29.78,ENE,68,0.0,0.0,82,0.00,,,0.00,WUHU216HW,2013-01-15 21:29:00,
2013-01-15 12:34:00,27.3,22.4,29.79,ENE,68,0.0,0.0,82,0.00,,,0.00,WUHU216HW,2013-01-15 21:34:00,
2013-01-15 12:39:00,27.1,22.0,29.79,ENE,68,0.0,0.0,81,0.00,,,0.00,WUHU216HW,2013-01-15 21:39:00,
2013-01-15 12:44:00,26.4,21.3,29.79,ENE,68,0.0,0.0,81,0.00,,,0.00,WUHU216HW,2013-01-15 21:44:00,
2013-01-15 12:49:00,26.2,21.1,29.79,ENE,68,0.0,0.0,81,0.00,,,0.00,WUHU216HW,2013-01-15 21:49:00,
2013-01-15 12:54:00,26.2,21.1,29.79,ENE,68,0.0,0.0,81,0.00,,,0.00,WUHU216HW,2013-01-15 21:54:00,
2013-01-15 12:59:00,26.9,22.1,29.79,ENE,68,0.0,0.0,82,0.00,,,0.00,WUHU216HW,2013-01-15 21:59:00,
2013-01-15 13:04:00,27.6,22.8,29.79,ENE,68,0.0,0.0,82,0.00,,,0.00,WUHU216HW,2013-01-15 22:04:00,
2013-01-15 13:09:00,28.0,23.2,29.79,ENE,68,0.0,0.0,82,0.00,,,0.00,WUHU216HW,2013-01-15 22:09:00,
2013-01-15 13:14:00,28.0,22.9,29.79,ENE,68,0.0,0.0,81,0.00,,,0.00,WUHU216HW,2013-01-15 22:14:00,
2013-01-15 13:19:00,28.0,22.9,29.79,ENE,68,0.0,0.0,81,0.00,,,0.00,WUHU216HW,2013-01-15 22:19:00,
2013-01-15 13:24:00,27.6,22.5,29.79,ENE,68,0.0,0.0,81,0.00,,,0.00,WUHU216HW,2013-01-15 22:24:00,
2013-01-15 13:29:00,27.6,22.5,29.79,ENE,68,0.0,0.0,81,0.00,,,0.00,WUHU216HW,2013-01-15 22:29:00,
2013-01-15 13:34:00,27.6,22.5,29.79,ENE,68,0.0,0.0,81,0.00,,,0.00,WUHU216HW,2013-01-15 22:34:00,
2013-01-15 13:39:00,27.5,22.3,29.79,ENE,68,0.0,0.0,81,0.00,,,0.00,WUHU216HW,2013-01-15 22:39:00,
2013-01-15 13:44:00,27.3,22.2,29.79,ENE,68,0.0,0.0,81,0.00,,,0.00,WUHU216HW,2013-01-15 22:44:00,
2013-01-15 13:49:00,27.1,22.0,29.79,ENE,68,0.0,0.0,81,0.00,,,0.00,WUHU216HW,2013-01-15 22:49:00,
2013-01-15 13:54:00,27.1,22.0,29.79,ENE,68,0.0,0.0,81,0.00,,,0.00,WUHU216HW,2013-01-15 22:54:00,
2013-01-15 13:59:00,26.9,21.8,29.79,ENE,68,0.0,0.0,81,0.00,,,0.00,WUHU216HW,2013-01-15 22:59:00,
2013-01-15 14:04:00,26.7,21.6,29.79,ENE,68,0.0,0.0,81,0.00,,,0.00,WUHU216HW,2013-01-15 23:04:00,
2013-01-15 14:09:00,26.7,21.6,29.79,ENE,68,0.0,0.0,81,0.00,,,0.00,WUHU216HW,2013-01-15 23:09:00,
2013-01-15 14:14:00,26.7,21.7,29.79,ENE,68,0.0,0.0,82,0.00,,,0.00,WUHU216HW,2013-01-15 23:14:00,
2013-01-15 14:19:00,26.6,21.7,29.79,ENE,68,0.0,0.0,82,0.00,,,0.00,WUHU216HW,2013-01-15 23:19:00,
2013-01-15 14:24:00,26.6,21.7,29.79,ENE,68,0.0,0.0,82,0.00,,,0.00,WUHU216HW,2013-01-15 23:24:00,
2013-01-15 14:29:00,26.7,21.9,29.79,ENE,68,0.0,0.0,82,0.00,,,0.00,WUHU216HW,2013-01-15 23:29:00,
2013-01-15 14:34:00,26.9,22.1,29.79,ENE,68,0.0,0.0,82,0.00,,,0.00,WUHU216HW,2013-01-15 23:34:00,
2013-01-15 14:39:00,26.9,22.1,29.79,ENE,68,0.0,0.0,82,0.00,,,0.00,WUHU216HW,2013-01-15 23:39:00,
2013-01-15 14:44:00,27.1,22.3,29.78,ENE,68,0.0,0.0,82,0.00,,,0.00,WUHU216HW,2013-01-15 23:44:00,
2013-01-15 14:49:00,27.1,22.3,29.79,ENE,68,0.0,0.0,82,0.00,,,0.00,WUHU216HW,2013-01-15 23:49:00,
2013-01-15 14:54:00,27.1,22.3,29.79,ENE,68,0.0,0.0,82,0.00,,,0.00,WUHU216HW,2013-01-15 23:54:00,
2013-01-15 14:59:00,27.1,22.3,29.79,ENE,68,0.0,0.0,82,0.00,,,0.00,WUHU216HW,2013-01-15 23:59:00,
2013-01-15 15:04:00,27.3,22.4,29.80,NE,45,0.0,0.0,82,0.00,,,0.00,WUHU216HW,2013-01-16 00:04:00,
2013-01-15 15:09:00,27.3,22.4,29.80,NE,45,0.0,0.0,82,0.00,,,0.00,WUHU216HW,2013-01-16 00:09:00,
2013-01-15 15:14:00,27.3,22.4,29.80,NE,45,0.0,0.0,82,0.00,,,0.00,WUHU216HW,2013-01-16 00:14:00,
2013-01-15 15:19:00,27.5,22.6,29.79,NE,45,0.0,0.0,82,0.00,,,0.00,WUHU216HW,2013-01-16 00:19:00,
2013-01-15 15:24:00,27.5,22.6,29.80,NE,45,0.0,0.0,82,0.00,,,0.00,WUHU216HW,2013-01-16 00:24:00,
2013-01-15 15:29:00,27.5,22.6,29.80,NE,45,0.0,0.0,82,0.00,,,0.00,WUHU216HW,2013-01-16 00:29:00,
2013-01-15 15:34:00,27.5,22.6,29.80,NE,45,0.0,0.0,82,0.00,,,0.00,WUHU216HW,2013-01-16 00:34:00,
2013-01-15 15:39:00,27.3,22.4,29.80,NE,45,0.0,0.0,82,0.00,,,0.00,WUHU216HW,2013-01-16 00:39:00,
2013-01-15 15:44:00,27.3,22.4,29.80,NE,45,0.0,0.0,82,0.00,,,0.00,WUHU216HW,2013-01-16 00:44:00,
2013-01-15 15:49:00,27.3,22.4,29.81,NE,45,0.0,0.0,82,0.00,,,0.00,WUHU216HW,2013-01-16 00:49:00,
2013-01-15 15:54:00,27.1,22.3,29.80,NE,45,0.0,0.0,82,0.00,,,0.00,WUHU216HW,2013-01-16 00:54:00,
2013-01-15 15:59:00,26.9,22.1,29.80,ENE,68,0.0,0.0,82,0.00,,,0.00,WUHU216HW,2013-01-16 00:59:00,
2013-01-15 16:04:00,26.7,21.9,29.80,ENE,68,0.0,0.0,82,0.00,,,0.00,WUHU216HW,2013-01-16 01:04:00,
2013-01-15 16:09:00,26.2,21.4,29.81,ENE,68,0.0,0.0,82,0.00,,,0.00,WUHU216HW,2013-01-16 01:09:00,
2013-01-15 16:14:00,25.8,21.1,29.81,ESE,113,0.0,0.0,82,0.00,,,0.00,WUHU216HW,2013-01-16 01:14:00,
2013-01-15 16:19:00,25.7,21.2,29.81,SE,135,0.0,0.0,83,0.00,,,0.00,WUHU216HW,2013-01-16 01:19:00,
2013-01-15 16:24:00,25.5,21.0,29.81,SE,135,0.0,0.0,83,0.00,,,0.00,WUHU216HW,2013-01-16 01:24:00,
2013-01-15 16:29:00,25.3,20.8,29.81,SE,135,0.0,0.0,83,0.00,,,0.00,WUHU216HW,2013-01-16 01:29:00,
2013-01-15 16:34:00,25.1,20.7,29.81,SE,135,0.0,0.0,83,0.00,,,0.00,WUHU216HW,2013-01-16 01:34:00,
2013-01-15 16:39:00,24.9,20.5,29.81,SE,135,0.0,0.0,83,0.00,,,0.00,WUHU216HW,2013-01-16 01:39:00,
2013-01-15 16:44:00,24.9,20.5,29.81,SE,135,0.0,0.0,83,0.00,,,0.00,WUHU216HW,2013-01-16 01:44:00,
2013-01-15 16:49:00,24.8,20.6,29.81,SE,135,0.0,0.0,84,0.00,,,0.00,WUHU216HW,2013-01-16 01:49:00,
2013-01-15 16:54:00,24.6,20.4,29.81,SE,135,0.0,0.0,84,0.00,,,0.00,WUHU216HW,2013-01-16 01:54:00,
2013-01-15 16:59:00,24.6,20.4,29.81,SE,135,0.0,0.0,84,0.00,,,0.00,WUHU216HW,2013-01-16 01:59:00,
2013-01-15 17:04:00,24.6,20.4,29.81,SE,135,0.0,0.0,84,0.00,,,0.00,WUHU216HW,2013-01-16 02:04:00,
2013-01-15 17:09:00,24.6,20.4,29.82,SE,135,0.0,0.0,84,0.00,,,0.00,WUHU216HW,2013-01-16 02:09:00,
2013-01-15 17:14:00,24.4,20.3,29.82,SE,135,0.0,0.0,84,0.00,,,0.00,WUHU216HW,2013-01-16 02:14:00,
2013-01-15 17:19:00,24.4,20.3,29.82,SE,135,0.0,0.0,84,0.00,,,0.00,WUHU216HW,2013-01-16 02:19:00,
2013-01-15 17:24:00,24.4,20.3,29.82,SE,135,0.0,0.0,84,0.00,,,0.00,WUHU216HW,2013-01-16 02:24:00,
2013-01-15 17:29:00,24.2,20.1,29.81,SE,135,0.0,0.0,84,0.00,,,0.00,WUHU216HW,2013-01-16 02:29:00,
2013-01-15 17:34:00,24.0,20.2,29.81,SE,135,0.0,0.0,85,0.00,,,0.00,WUHU216HW,2013-01-16 02:34:00,
2013-01-15 17:39:00,24.0,20.2,29.81,SE,135,0.0,0.0,85,0.00,,,0.00,WUHU216HW,2013-01-16 02:39:00,
2013-01-15 17:44:00,24.0,20.2,29.81,SE,135,0.0,0.0,85,0.00,,,0.00,WUHU216HW,2013-01-16 02:44:00,
2013-01-15 17:49:00,23.9,20.0,29.81,SE,135,0.0,0.0,85,0.00,,,0.00,WUHU216HW,2013-01-16 02:49:00,
2013-01-15 17:54:00,23.9,20.0,29.81,SE,135,0.0,0.0,85,0.00,,,0.00,WUHU216HW,2013-01-16 02:54:00,
2013-01-15 17:59:00,23.7,19.8,29.82,SE,135,0.0,0.0,85,0.00,,,0.00,WUHU216HW,2013-01-16 02:59:00,
2013-01-15 18:04:00,23.5,19.6,29.82,SE,135,0.0,0.0,85,0.00,,,0.00,WUHU216HW,2013-01-16 03:04:00,
2013-01-15 18:09:00,23.5,19.6,29.81,SE,135,0.0,0.0,85,0.00,,,0.00,WUHU216HW,2013-01-16 03:09:00,
2013-01-15 18:14:00,23.3,19.4,29.82,SE,135,0.0,0.0,85,0.00,,,0.00,WUHU216HW,2013-01-16 03:14:00,
2013-01-15 18:19:00,23.1,19.3,29.82,SE,135,0.0,0.0,85,0.00,,,0.00,WUHU216HW,2013-01-16 03:19:00,
2013-01-15 18:24:00,23.0,19.1,29.82,SE,135,0.0,0.0,85,0.00,,,0.00,WUHU216HW,2013-01-16 03:24:00,
2013-01-15 18:29:00,22.8,18.9,29.82,SE,135,0.0,0.0,85,0.00,,,0.00,WUHU216HW,2013-01-16 03:29:00,
2013-01-15 18:34:00,22.8,18.9,29.82,SE,135,0.0,0.0,85,0.00,,,0.00,WUHU216HW,2013-01-16 03:34:00,
2013-01-15 18:39:00,22.8,18.9,29.82,SE,135,0.0,0.0,85,0.00,,,0.00,WUHU216HW,2013-01-16 03:39:00,
2013-01-15 18:44:00,22.6,18.7,29.82,SE,135,0.0,0.0,85,0.00,,,0.00,WUHU216HW,2013-01-16 03:44:00,
2013-01-15 18:49:00,22.6,18.7,29.82,SSE,158,0.0,0.0,85,0.00,,,0.00,WUHU216HW,2013-01-16 03:49:00,
2013-01-15 18:54:00,22.6,18.7,29.82,SSE,158,0.0,0.0,85,0.00,,,0.00,WUHU216HW,2013-01-16 03:54:00,
2013-01-15 18:59:00,22.8,18.9,29.82,SSE,158,0.0,0.0,85,0.00,,,0.00,WUHU216HW,2013-01-16 03:59:00,
2013-01-15 19:04:00,22.8,18.9,29.82,SSE,158,0.0,0.0,85,0.00,,,0.00,WUHU216HW,2013-01-16 04:04:00,
2013-01-15 19:10:00,22.8,18.9,29.82,SSE,158,0.0,0.0,85,0.00,,,0.00,WUHU216HW,2013-01-16 04:10:00,
2013-01-15 19:15:00,22.8,18.9,29.82,SSE,158,0.0,0.0,85,0.00,,,0.00,WUHU216HW,2013-01-16 04:15:00,
2013-01-15 19:20:00,22.6,18.7,29.82,SSE,158,0.0,0.0,85,0.00,,,0.00,WUHU216HW,2013-01-16 04:20:00,
2013-01-15 19:25:00,22.4,18.5,29.82,ESE,113,0.0,0.0,85,0.00,,,0.00,WUHU216HW,2013-01-16 04:25:00,
2013-01-15 19:30:00,22.4,18.5,29.82,East,90,0.0,0.0,85,0.00,,,0.00,WUHU216HW,2013-01-16 04:30:00,
2013-01-15 19:35:00,22.4,18.5,29.82,East,90,0.0,0.0,85,0.00,,,0.00,WUHU216HW,2013-01-16 04:35:00,
2013-01-15 19:40:00,22.4,18.5,29.82,East,90,0.0,0.0,85,0.00,,,0.00,WUHU216HW,2013-01-16 04:40:00,
2013-01-15 19:45:00,22.4,18.8,29.82,East,90,0.0,0.0,86,0.00,,,0.00,WUHU216HW,2013-01-16 04:45:00,
2013-01-15 19:50:00,22.2,18.6,29.82,ESE,113,0.0,0.0,86,0.00,,,0.00,WUHU216HW,2013-01-16 04:50:00,
2013-01-15 19:55:00,22.1,18.5,29.82,ESE,113,0.0,0.0,86,0.00,,,0.00,WUHU216HW,2013-01-16 04:55:00,
2013-01-15 20:00:00,22.1,18.5,29.82,ESE,113,0.0,0.0,86,0.00,,,0.00,WUHU216HW,2013-01-16 05:00:00,
2013-01-15 20:01:00,21.9,18.3,29.81,ESE,113,0.0,0.0,86,0.00,,,0.00,WUHU216HW,2013-01-16 05:01:00,
2013-01-15 20:02:00,21.9,18.3,29.81,ESE,113,0.0,0.0,86,0.00,,,0.00,WUHU216HW,2013-01-16 05:02:00,
2013-01-15 20:07:00,21.9,18.3,29.82,East,90,0.0,0.0,86,0.00,,,0.00,WUHU216HW,2013-01-16 05:07:00,
2013-01-15 20:12:00,21.9,18.3,29.82,East,90,0.0,0.0,86,0.00,,,0.00,WUHU216HW,2013-01-16 05:12:00,
2013-01-15 20:17:00,21.9,18.3,29.81,East,90,0.0,0.0,86,0.00,,,0.00,WUHU216HW,2013-01-16 05:17:00,
2013-01-15 20:22:00,21.9,18.3,29.82,East,90,0.0,0.0,86,0.00,,,0.00,WUHU216HW,2013-01-16 05:22:00,
2013-01-15 20:27:00,21.7,18.1,29.81,East,90,0.0,0.0,86,0.00,,,0.00,WUHU216HW,2013-01-16 05:27:00,
2013-01-15 20:32:00,21.7,18.1,29.82,East,90,0.0,0.0,86,0.00,,,0.00,WUHU216HW,2013-01-16 05:32:00,
2013-01-15 20:38:00,21.5,17.9,29.82,East,90,0.0,0.0,86,0.00,,,0.00,WUHU216HW,2013-01-16 05:38:00,
2013-01-15 20:43:00,21.5,17.9,29.82,East,90,0.0,0.0,86,0.00,,,0.00,WUHU216HW,2013-01-16 05:43:00,
2013-01-15 20:48:00,21.5,17.9,29.82,East,90,0.0,0.0,86,0.00,,,0.00,WUHU216HW,2013-01-16 05:48:00,
2013-01-15 20:53:00,21.3,17.7,29.82,East,90,0.0,0.0,86,0.00,,,0.00,WUHU216HW,2013-01-16 05:53:00,
2013-01-15 20:58:00,21.3,17.7,29.82,East,90,0.0,0.0,86,0.00,,,0.00,WUHU216HW,2013-01-16 05:58:00,
2013-01-15 21:03:00,21.3,17.7,29.82,East,90,0.0,0.0,86,0.00,,,0.00,WUHU216HW,2013-01-16 06:03:00,
2013-01-15 21:08:00,21.3,17.7,29.82,East,90,0.0,0.0,86,0.00,,,0.00,WUHU216HW,2013-01-16 06:08:00,
2013-01-15 21:13:00,21.3,17.7,29.82,East,90,0.0,1.7,86,0.00,,,0.00,WUHU216HW,2013-01-16 06:13:00,
2013-01-15 21:18:00,21.3,17.7,29.82,East,90,0.0,1.7,86,0.00,,,0.00,WUHU216HW,2013-01-16 06:18:00,
2013-01-15 21:23:00,21.3,17.7,29.81,East,90,0.0,0.0,86,0.00,,,0.00,WUHU216HW,2013-01-16 06:23:00,
2013-01-15 21:28:00,21.3,17.7,29.81,East,90,0.0,0.0,86,0.00,,,0.00,WUHU216HW,2013-01-16 06:28:00,
2013-01-15 21:33:00,21.3,17.7,29.80,North,0,0.0,0.0,86,0.00,,,0.00,WUHU216HW,2013-01-16 06:33:00,
2013-01-15 21:38:00,21.3,17.7,29.80,East,90,0.0,0.0,86,0.00,,,0.00,WUHU216HW,2013-01-16 06:38:00,
2013-01-15 21:43:00,21.3,17.7,29.81,East,90,0.0,0.0,86,0.00,,,0.00,WUHU216HW,2013-01-16 06:43:00,
2013-01-15 21:48:00,21.5,18.2,29.81,East,90,0.0,0.0,86,0.00,,,0.00,WUHU216HW,2013-01-16 06:48:00,
2013-01-15 21:53:00,21.5,18.2,29.80,East,90,0.0,0.0,87,0.00,,,0.00,WUHU216HW,2013-01-16 06:53:00,
2013-01-15 21:58:00,21.3,18.0,29.81,East,90,0.0,0.0,87,0.00,,,0.00,WUHU216HW,2013-01-16 06:58:00,
2013-01-15 22:03:00,21.3,18.0,29.80,East,90,0.0,0.0,87,0.00,,,0.00,WUHU216HW,2013-01-16 07:03:00,
2013-01-15 22:08:00,21.3,18.0,29.80,East,90,0.0,0.0,87,0.00,,,0.00,WUHU216HW,2013-01-16 07:08:00,
2013-01-15 22:13:00,21.0,17.6,29.80,East,90,0.0,0.0,87,0.00,,,0.00,WUHU216HW,2013-01-16 07:13:00,
2013-01-15 22:18:00,20.8,17.4,29.80,East,90,0.0,0.0,86,0.00,,,0.00,WUHU216HW,2013-01-16 07:18:00,
2013-01-15 22:23:00,20.4,16.8,29.79,East,90,0.0,0.0,86,0.00,,,0.00,WUHU216HW,2013-01-16 07:23:00,
2013-01-15 22:28:00,20.4,16.8,29.80,East,90,0.0,0.0,86,0.00,,,0.00,WUHU216HW,2013-01-16 07:28:00,
2013-01-15 22:33:00,20.1,16.5,29.79,East,90,0.0,0.0,86,0.00,,,0.00,WUHU216HW,2013-01-16 07:33:00,
2013-01-15 22:38:00,20.1,16.5,29.79,East,90,0.0,0.0,86,0.00,,,0.00,WUHU216HW,2013-01-16 07:38:00,
2013-01-15 22:43:00,20.1,16.7,29.79,East,90,0.0,0.0,87,0.00,,,0.00,WUHU216HW,2013-01-16 07:43:00,
2013-01-15 22:48:00,20.3,16.9,29.79,East,90,0.0,0.0,87,0.00,,,0.00,WUHU216HW,2013-01-16 07:48:00,
2013-01-15 22:53:00,20.3,16.9,29.79,East,90,0.0,0.0,87,0.00,,,0.00,WUHU216HW,2013-01-16 07:53:00,
2013-01-15 22:58:00,20.4,17.1,29.79,East,90,0.0,0.0,87,0.00,,,0.00,WUHU216HW,2013-01-16 07:58:00,
2013-01-15 23:03:00,20.6,17.3,29.79,East,90,0.0,0.0,87,0.00,,,0.00,WUHU216HW,2013-01-16 08:03:00,
2013-01-15 23:08:00,20.8,17.5,29.79,East,90,0.0,0.0,87,0.00,,,0.00,WUHU216HW,2013-01-16 08:08:00,
2013-01-15 23:13:00,20.8,17.7,29.79,East,90,0.0,0.0,88,0.00,,,0.00,WUHU216HW,2013-01-16 08:13:00,
2013-01-15 23:18:00,21.0,17.9,29.78,East,90,0.0,0.0,88,0.00,,,0.00,WUHU216HW,2013-01-16 08:18:00,
2013-01-15 23:23:00,21.0,17.9,29.79,East,90,0.0,0.0,88,0.00,,,0.00,WUHU216HW,2013-01-16 08:23:00,
2013-01-15 23:28:00,21.0,17.9,29.79,ENE,68,0.0,0.0,88,0.00,,,0.00,WUHU216HW,2013-01-16 08:28:00,
2013-01-15 23:33:00,21.0,17.9,29.79,ENE,68,0.0,0.0,88,0.00,,,0.00,WUHU216HW,2013-01-16 08:33:00,
2013-01-15 23:38:00,21.0,17.9,29.78,ENE,68,0.0,0.0,88,0.00,,,0.00,WUHU216HW,2013-01-16 08:38:00,
2013-01-15 23:43:00,21.0,17.9,29.78,ENE,68,0.0,0.0,88,0.00,,,0.00,WUHU216HW,2013-01-16 08:43:00,
2013-01-15 23:48:00,21.3,18.1,29.78,ENE,68,0.0,0.0,88,0.00,,,0.00,WUHU216HW,2013-01-16 08:48:00,
2013-01-15 23:53:00,21.3,18.3,29.78,ENE,68,0.0,0.0,88,0.00,,,0.00,WUHU216HW,2013-01-16 08:53:00,
2013-01-15 23:58:00,21.3,18.3,29.78,ENE,68,0.0,0.0,88,0.00,,,0.00,WUHU216HW,2013-01-16 08:58:00,